Location: Bartlow
(52.0833°N, 0.3167°E)
Time: 19:26:05
(UTC+00:00)

Meteor 2-17 Rocket - Pass Details

Date: 03 May 2024
Orbit: 934 x 957 km, 82.5° (Epoch: 23 May)

Event Time Altitude Azimuth Distance (km) Brightness Sun altitude
Exits shadow 22:44:53 14° 104° (ESE) 2,391 6.2 -20.2°
Maximum altitude 22:47:14 17° 78° (ENE) 2,190 6.3 -20.3°
Drops below altitude 10° 22:50:57 10° 40° (NE) 2,663 7.2 -20.4°
Sets 22:54:19 0° 21° (NNE) 3,609 8.3 -20.6°
